Location: Newark
(49.8348°N, 24.0280°E)
Time: 07:06:30
(UTC+00:00)

Altair - Visible Passes

Search period start: 28 January 2020 00:00
Search period end: 07 February 2020 00:00
Orbit: 1502 x 1682 km, 47.2° (Epoch: 27 January)

Date Brightness Start Highest point End Pass type
(mag) Time Alt. Az. Time Alt. Az. Time Alt. Az.
28 Jan 9.8 04:37:04 10° S 04:44:23 24° SE 04:51:49 10° E visible
29 Jan 9.8 04:12:25 10° S 04:19:21 22° SE 04:26:23 10° E visible
30 Jan 9.7 03:47:50 10° S 03:54:20 20° SE 04:00:55 10° E visible
31 Jan 9.7 03:23:20 10° SSE 03:29:19 18° SE 03:35:25 10° E visible
31 Jan 8.7 05:22:50 10° SW 05:32:12 48° SSE 05:41:45 10° ENE visible
01 Feb 9.7 02:58:54 10° SSE 03:04:20 16° SE 03:09:48 10° E visible
01 Feb 8.7 04:57:50 10° SW 05:07:05 46° SE 05:16:32 10° ENE visible
02 Feb 9.7 02:34:38 10° SSE 02:39:20 15° ESE 02:44:05 10° E visible
02 Feb 8.7 04:32:52 10° SSW 04:41:58 43° SE 04:51:18 10° ENE visible
03 Feb 9.7 02:10:34 10° SE 02:14:21 13° ESE 02:18:11 10° E visible
03 Feb 8.7 04:07:56 10° SSW 04:16:52 41° SE 04:26:02 10° ENE visible
04 Feb 9.7 01:46:54 10° SE 01:49:22 11° ESE 01:51:52 10° ESE visible
04 Feb 8.8 03:43:00 10° SSW 03:51:47 38° SE 04:00:47 10° ENE visible
05 Feb 8.8 03:18:07 10° SSW 03:26:42 36° SE 03:35:31 10° ENE visible
06 Feb 8.8 02:53:37 11° SSW 03:01:38 34° SE 03:10:13 10° E visible
06 Feb 8.0 04:55:32 10° WSW 05:05:18 66° SSE 05:15:19 10° E visible
